Flag for U.S.A. Weather past 2 weeks in Raleigh, North Carolina, U.S.A.

Now
37 °F

Sunny.


Feels Like: 31 °F
Forecast: 28 / 44 °F
Wind: 8 mph from Northeast

Location: Raleigh-Durham International Airport

Current Time: Jan 28, 2015 at 12:02:14 PM

Latest Report: Jan 28, 2015 at 10:51 AM


Visibility: 10 mi

Pressure: 30.26 "Hg

Humidity: 37%

Dew point: 13 °F

Location of RaleighLocation

Historic Weather in Raleigh — Graph

°F

Raleigh temperature yesterday

Maximum temperature yesterday: 44 °F (at 2:51 PM)
Minimum temperature yesterday: 31 °F (at 11:51 PM)
Average temperature yesterday: 36 °F

Past Weeks' High & Low Weather Summary

 TemperatureHumidityPressure
High67 °F (Jan 20, 2:51 PM)93% (Jan 18, 5:02 AM)30.43 "Hg (Jan 18, 5:02 AM)
Low26 °F (Jan 28, 6:51 AM)24% (Jan 19, 2:51 PM)29.55 "Hg (Jan 24, 6:51 AM)
Average41 °F67%30.04 "Hg
* Reported Jan 13 10:51 AM — Jan 28 10:51 AM, Raleigh, Weather by CustomWeather, © 2014

Note: Actual official high and low records may vary slightly from our data, if they occured in-between our weather recording intervals... More about our weather records

Advertising

Raleigh weather history for previous 24 hours

 ConditionsComfort  
Time TempWeatherWind HumidityBarometerVisibility
10:51 AM
Jan 28
37 °FSunny.8 mph37%30.26 "Hg10 mi
9:51 AM33 °FSunny.8 mph45%30.25 "Hg10 mi
8:51 AM29 °FSunny.No wind54%30.23 "Hg10 mi
7:51 AM26 °FSunny.No wind57%30.19 "Hg10 mi
6:51 AM26 °FClear.3 mph57%30.16 "Hg10 mi
5:51 AM27 °FPassing clouds.No wind55%30.13 "Hg10 mi
4:51 AM27 °FPassing clouds.No wind53%30.10 "Hg10 mi
3:51 AM27 °FPassing clouds.6 mph53%30.07 "Hg10 mi
2:51 AM28 °FPassing clouds.6 mph49%30.06 "Hg10 mi
1:51 AM28 °FPassing clouds.6 mph49%30.04 "Hg10 mi
12:51 AM29 °FPassing clouds.6 mph49%30.03 "Hg10 mi
11:51 PM
Jan 27
31 °FPassing clouds.5 mph45%30.01 "Hg10 mi
10:51 PM32 °FPassing clouds.7 mph40%29.98 "Hg10 mi
9:51 PM35 °FPassing clouds.7 mph27%29.96 "Hg10 mi
8:51 PM37 °FPassing clouds.7 mph26%29.93 "Hg10 mi
7:51 PM37 °FPassing clouds.5 mph34%29.90 "Hg10 mi
6:51 PM35 °FPassing clouds.No wind40%29.88 "Hg10 mi
5:51 PM40 °FPassing clouds.No wind29%29.86 "Hg10 mi
4:51 PM43 °FPassing clouds.5 mph25%29.83 "Hg10 mi
3:51 PM44 °FPassing clouds.7 mph27%29.81 "Hg10 mi
2:51 PM44 °FScattered clouds.9 mph32%29.80 "Hg10 mi
1:51 PM41 °FScattered clouds.6 mph41%29.80 "Hg10 mi
12:51 PM38 °FPartly sunny.7 mph45%29.82 "Hg10 mi
Weather by CustomWeather, © 2014

See weather overviewHow to use our weather pages